Welcome to the New NWS' Forecast!
Most changes are behind the scenes, but click here for differences you might notice.
Latest weather observations around

College Park Airport (KCGS)

Using English Units (Switch to International System of Units)
Date/ Time (EDT) Wind (mph) Vis. (mi) Weather Sky Cond. Temp (°F) Rel. Humidity Wind Chill (°F) Heat Index (°F) Pressure Precip. (in)
Air Dwpt 6 hour Altimeter (inHg) Sea level (inHg) 1 hr 3 hr 6 hr
Max Min
Oct 20 10:05 NW 6 10 Clear CLR 66 49     54%     30.24        
Oct 20 09:45 NW 5 10 Clear CLR 65 50     60%     30.24        
Oct 20 09:25 Calm 10 Clear CLR 60 54     82%     30.24        
Oct 20 09:05 Calm 10 Clear CLR 56 53     89%     30.23        
Oct 20 08:45 Calm 10 Clear CLR 54 52     92%     30.23        
Notice The following observation data may not be complete
Oct 20 08:25 Calm 10 Clear CLR   49      %     30.23        
Notice The following observation data may not be complete
Oct 20 08:05 Calm 10 Clear CLR   48      %     30.22        
Notice The following observation data may not be complete
Oct 20 07:45 Calm 10 Clear CLR   46      %     30.21        
Oct 20 07:25 Calm 10 Clear CLR 47 46     96%     30.21        
Notice The following observation data may not be complete
Oct 20 07:05 Calm 10 Clear CLR   46      %     30.2        
Notice The following observation data may not be complete
Oct 20 06:45 Calm 10 Clear CLR   46      %     30.2        
Oct 20 06:25 Calm 10 Clear CLR 47 46     96%     30.2        
Oct 20 06:05 Calm 10 Clear CLR 47 46     95%     30.19        
Notice The following observation data may not be complete
Oct 20 05:45 Calm 10 Clear CLR   46      %     30.18        
Oct 20 05:25 Calm 10 Clear CLR 47 46     96%     30.17        
Oct 20 05:05 Calm 10 Clear CLR 46 45     97%     30.17        
Oct 20 04:45 Calm 10 Clear CLR 47 46     95%     30.17        
Oct 20 04:25 Calm 10 Clear CLR 47 46     96%     30.16        
Oct 20 04:05 Calm 10 Clear CLR 47 46     97%     30.16        
Oct 20 03:45 Calm 10 Clear CLR 47 46     97%     30.16        
Oct 20 03:25 Calm 10 Clear CLR 47 46     97%     30.16        
Oct 20 03:05 Calm 10 Clear CLR 47 46     96%     30.16        
Oct 20 02:45 Calm 10 Clear CLR 47 46     97%     30.16        
Oct 20 02:25 Calm 10 Clear CLR 47 46     97%     30.16        
Oct 20 02:05 Calm 10 Clear CLR 47 45     96%     30.16        
Oct 20 01:45 Calm 10 Clear CLR 47 46     97%     30.16        
Oct 20 01:25 Calm 10 Clear CLR 47 46     96%     30.17        
Oct 20 01:05 Calm 10 Clear CLR 47 46     97%     30.17        
Oct 20 00:45 Calm 10 Clear CLR 48 47     97%     30.17        
Oct 20 00:25 Calm 10 Clear CLR 48 47     97%     30.17        
Oct 20 00:05 Calm 10 Clear CLR 48 47     97%     30.17        
Oct 19 23:45 Calm 10 Clear CLR 48 47     97%     30.17        
Oct 19 23:25 Calm 10 Clear CLR 49 47     95%     30.16        
Oct 19 23:05 Calm 10 Clear CLR 49 48     95%     30.16        
Oct 19 22:45 Calm 10 Clear CLR 49 48     96%     30.16        
Oct 19 22:25 Calm 10 Clear   49 48     95%     30.15        
Oct 19 22:05 Calm 10 Clear   50 48     93%     30.15        
Oct 19 21:45 Calm 10 Clear   51 48     92%     30.15        
Oct 19 21:25 Calm 10 Clear CLR 51 48     92%     30.16        
Oct 19 21:05 Calm 10 Clear CLR 51 48     89%     30.15        
Oct 19 20:45 Calm 10 Clear CLR 52 48     87%     30.15        
Oct 19 20:25 Calm 10 Clear CLR 53 49     87%     30.15        
Oct 19 20:05 Calm 10 Clear CLR 53 49     85%     30.15        
Oct 19 19:45 Calm 10 Clear CLR 54 49     82%     30.15        
Oct 19 19:25 Calm 10 Clear CLR 55 48     79%     30.15        
Oct 19 19:05 Calm 10 Clear CLR 57 49     74%     30.14        
Oct 19 18:45 Calm 10 Clear CLR 59 49     70%     30.14        
Oct 19 18:25 Calm 10 Clear CLR 62 47     58%     30.14        
Oct 19 18:05 Calm 10 Clear CLR 68 43     40%     30.15        
Oct 19 17:45 S 5 10 Clear CLR 69 44     40%     30.15        
Oct 19 17:25 S 3 10 Clear CLR 71 45     40%   69 30.15        
Oct 19 17:05 S 3 10 Clear CLR 71 45     40%   69 30.15        
Oct 19 16:45 SSW 3 10 Clear CLR 71 46     40%   70 30.15        
Oct 19 16:25 S 5 10 Clear CLR 71 46     40%   70 30.15        
Oct 19 16:05 S 3 10 Clear CLR 72 45     39%   70 30.16        
Oct 19 15:45 S 3 10 Clear CLR 72 45     38%   70 30.16        
Notice The following observation data may not be complete
Oct 19 15:25   10 Clear CLR          %              
Oct 19 15:05 SSE 5 10 Clear CLR 71 45     39%   69 30.18        
Oct 19 14:25 Calm 10 Clear CLR 70 45     40%     30.19        
Oct 19 14:05 Calm 10 Clear CLR 70 45     41%     30.2        
Oct 19 13:45 SSW 5 10 Clear CLR 69 44     42%     30.21        
Oct 19 13:25 Calm 10 Clear CLR 68 44     42%     30.22        
Oct 19 13:05 SW 6 10 Clear CLR 67 44     42%     30.23        
Oct 19 12:45 S 6 10 Clear CLR 67 44     43%     30.24        
Oct 19 12:25 SSW 5 10 Partly Cloudy SCT110 66 44     44%     30.25        
Oct 19 12:05 SSW 5 10 Clear CLR 65 43     44%     30.25        
Oct 19 11:45 SW 5 10 Clear CLR 65 44     48%     30.27        
Oct 19 11:25 SSW 3 10 Clear CLR 63 45     51%     30.27        
Oct 19 11:05 SW 5 10 Clear CLR 62 45     54%     30.27        
Oct 19 10:45 Calm 10 Clear CLR 61 46     59%     30.27        
Oct 19 10:25 Calm 10 Clear   59 47     65%     30.28        
Oct 19 10:05 Calm 10 Clear   57 49     74%     30.28        
Oct 19 09:45 Calm 10 Clear   54 48     81%     30.28        
Oct 19 09:25 Calm 10 Clear CLR 51 47     87%     30.28        
Oct 19 09:05 Calm 10 Clear CLR 47 46     93%     30.28        
Oct 19 08:45 Calm 10 Clear CLR 45 44     96%     30.28        
Oct 19 08:25 Calm 10 Clear CLR 42 42     97%     30.28        
Oct 19 08:05 Calm 10 Partly Cloudy SCT001 41 40     97%     30.27        
Oct 19 07:45 Calm 10 Partly Cloudy SCT001 40 40     97%     30.27        
Oct 19 07:25 Calm 10 Clear CLR 40 40     97%     30.27        
Oct 19 07:05 Calm 10 Clear CLR 40 40     97%     30.27        
Oct 19 06:45 Calm 10 Clear CLR 41 40     97%     30.28        
Oct 19 06:25 Calm 10 Clear CLR 41 40     97%     30.28        
Oct 19 06:05 Calm 10 Clear CLR 41 40     97%     30.28        
Oct 19 05:45 Calm 10 Clear CLR 41 40     97%     30.28        
Oct 19 05:25 Calm 10 Clear CLR 41 40     97%     30.28        
Oct 19 05:05 Calm 10 Clear CLR 41 41     98%     30.28        
Oct 19 04:45 Calm 10 Clear CLR 42 41     97%     30.27        
Oct 19 04:25 Calm 10 Clear CLR 42 41     97%     30.27        
Oct 19 04:05 Calm 10 Clear CLR 42 42     97%     30.27        
Oct 19 03:45 Calm 10 Clear CLR 42 42     97%     30.28        
Oct 19 03:25 Calm 7 Clear CLR 43 42     97%     30.28        
Oct 19 03:05 Calm 10 Clear CLR 43 42     97%     30.28        
Oct 19 02:45 Calm 10 Clear CLR 43 42     97%     30.29        
Oct 19 02:25 Calm 10 Clear CLR 44 43     97%     30.29        
Oct 19 02:05 Calm 10 Clear CLR 44 43     97%     30.3        
Oct 19 01:45 Calm 10 Clear CLR 44 43     97%     30.3        
Oct 19 01:25 Calm 10 Clear CLR 45 44     97%     30.3        
Oct 19 01:05 Calm 10 Clear CLR 45 44     96%     30.3        
Oct 19 00:45 Calm 10 Clear CLR 45 44     97%     30.3        
Oct 19 00:25 Calm 10 Clear CLR 45 44     96%     30.3        
Oct 19 00:05 Calm 10 Clear CLR 46 45     96%     30.31        
Oct 18 23:45 Calm 10 Clear CLR 46 45     95%     30.31        
Oct 18 23:25 Calm 10 Clear CLR 46 45     95%     30.31        
Oct 18 23:05 Calm 10 Clear CLR 47 45     95%     30.31        
Oct 18 22:45 Calm 10 Clear CLR 47 45     93%     30.31        
Oct 18 22:25 Calm 10 Clear CLR 47 45     92%     30.31        
Oct 18 22:05 Calm 10 Clear CLR 48 45     90%     30.31        
Oct 18 21:45 Calm 10 Clear CLR 49 45     87%     30.31        
Oct 18 21:25 Calm 10 Clear CLR 49 46     87%     30.31        
Oct 18 21:05 Calm 10 Clear CLR 50 46     86%     30.32        
Oct 18 20:45 Calm 10 Clear CLR 51 46     85%     30.31        
Oct 18 20:25 Calm 10 Clear   52 47     85%     30.31        
Oct 18 20:05 Calm 10 Clear   52 47     82%     30.31        
Oct 18 19:45 Calm 10 Clear   54 47     79%     30.3        
Oct 18 19:25 Calm 10 Clear CLR 55 48     77%     30.3        
Oct 18 19:05 Calm 10 Clear CLR 57 47     71%     30.3        
Oct 18 18:45 Calm 10 Clear CLR 58 47     66%     30.3        
Oct 18 18:25 Calm 10 Clear CLR 64 43     45%     30.3        
Oct 18 18:05 Calm 10 Clear CLR 65 43     43%     30.3        
Oct 18 17:45 Calm 10 Clear CLR 67 41     39%     30.3        
Oct 18 17:25 SW 3 10 Clear CLR 68 41     37%     30.3        
Oct 18 17:05 Calm 10 Clear CLR 69 40     35%     30.3        
Oct 18 16:45 SSW 3 10 Clear CLR 69 40     35%     30.3        
Oct 18 16:25 SW 5 10 Clear CLR 69 40     35%     30.3        
Oct 18 16:05 S 3 10 Clear CLR 69 40     34%     30.31        
Oct 18 15:45 SSW 3 10 Clear CLR 69 41     36%     30.32        
Oct 18 15:25 Calm 10 Clear CLR 69 40     35%     30.32        
Oct 18 15:05 Calm 10 Clear CLR 68 41     37%     30.32        
Oct 18 14:45 SSE 3 10 Clear CLR 69 42     37%     30.33        
Oct 18 14:25 S 6 10 Clear CLR 68 41     37%     30.33        
Oct 18 14:05 Calm 10 Clear CLR 69 42     38%     30.34        
Oct 18 13:45 Calm 10 Clear CLR 68 41     37%     30.34        
Oct 18 13:25 SSE 3 10 Clear CLR 68 40     37%     30.35        
Oct 18 13:05 SW 3 10 Clear CLR 67 42     39%     30.36        
Oct 18 12:45 Calm 10 Clear CLR 66 41     39%     30.37        
Oct 18 12:25 Calm 10 Clear CLR 65 41     41%     30.38        
Oct 18 12:05 S 3 10 Clear CLR 64 41     43%     30.39        
Oct 18 11:45 Calm 10 Clear CLR 64 42     44%     30.39        
Oct 18 11:25 Calm 10 Clear CLR 63 43     48%     30.39        
Oct 18 11:05 Calm 10 Clear CLR 61 43     51%     30.38        
Oct 18 10:45 Calm 10 Clear CLR 59 41     52%     30.38        
Oct 18 10:25 Calm 10 Clear CLR 58 42     56%     30.39        
Oct 18 10:05 Calm 10 Clear CLR 55 41     59%     30.39        
Oct 18 09:45 Calm 10 Clear CLR 53 41     64%     30.39        
Oct 18 09:25 Calm 10 Clear CLR 51 43     76%     30.39        
Oct 18 09:05 Calm 10 Clear CLR 48 45     89%     30.39        
Oct 18 08:45 Calm 10 Clear CLR 44 42     91%     30.38        
Oct 18 08:25 Calm 10 Clear CLR 42 40     94%     30.38        
Oct 18 08:05 Calm 10 Clear CLR 40 39     96%     30.38        
Oct 18 07:45 Calm 10 Clear CLR 39 38     97%     30.37        
Oct 18 07:25 Calm 10 Clear CLR 38 37     97%     30.37        
Oct 18 07:05 Calm 10 Clear CLR 38 38     97%     30.37        
Oct 18 06:45 Calm 10 Clear CLR 39 38     97%     30.36        
Oct 18 06:25 Calm 10 Clear CLR 39 38     97%     30.35        
Oct 18 06:05 Calm 5 Partly Cloudy SCT001 39 38     98%     30.35        
Oct 18 05:45 Calm 10 Cloudy OVC001 39 38     96%     30.35        
Oct 18 05:25 Calm 10 Mostly Cloudy BKN001 39 38     97%     30.35        
Oct 18 05:05 Calm 10 Mostly Cloudy BKN001 39 38     97%     30.34        
Oct 18 04:45 Calm 10 Partly Cloudy SCT001 39 38     97%     30.34        
Oct 18 04:25 Calm 10 Clear CLR 39 38     97%     30.33        
Oct 18 04:05 Calm 10 Clear CLR 39 38     97%     30.33        
Oct 18 03:45 Calm 10 Clear CLR 40 38     96%     30.33        
Oct 18 03:25 Calm 10 Clear CLR 40 39     96%     30.33        
Oct 18 03:05 Calm 10 Clear CLR 40 39     96%     30.33        
Oct 18 02:45 Calm 10 Clear CLR 40 39     97%     30.33        
Oct 18 02:25 Calm 10 Clear CLR 40 39     96%     30.33        
Oct 18 02:05 Calm 10 Clear CLR 41 40     96%     30.33        
Oct 18 01:45 Calm 10 Clear CLR 41 40     95%     30.33        
Oct 18 01:25 Calm 10 Clear CLR 41 40     97%     30.33        
Oct 18 01:05 Calm 10 Clear CLR 41 40     97%     30.33        
Oct 18 00:45 Calm 10 Clear CLR 42 40     96%     30.33        
Oct 18 00:25 Calm 10 Clear CLR 42 41     95%     30.33        
Oct 18 00:05 Calm 10 Clear CLR 42 41     95%     30.33        
Oct 17 23:45 Calm 10 Clear CLR 43 41     95%     30.34        
Oct 17 23:25 Calm 10 Clear CLR 42 41     95%     30.34        
Oct 17 23:05 Calm 10 Clear CLR 43 41     93%     30.34        
Oct 17 22:45 Calm 10 Clear CLR 43 41     93%     30.34        
Oct 17 22:25 Calm 10 Clear CLR 44 42     93%     30.34        
Oct 17 22:05 Calm 10 Clear CLR 44 42     93%     30.33        
Oct 17 21:45 Calm 10 Clear CLR 45 42     90%     30.33        
Oct 17 21:25 Calm 10 Clear CLR 45 42     88%     30.33        
Oct 17 21:05 Calm 10 Clear CLR 46 42     86%     30.32        
Oct 17 20:45 Calm 10 Clear CLR 46 41     84%     30.31        
Oct 17 20:25 Calm 10 Clear CLR 46 41     81%     30.31        
Oct 17 20:05 Calm 10 Clear CLR 47 41     80%     30.31        
Oct 17 19:45 Calm 10 Clear CLR 48 41     78%     30.3        
Oct 17 19:25 Calm 10 Clear CLR 48 42     79%     30.3        
Oct 17 19:05 Calm 10 Clear CLR 50 42     75%     30.3        
Oct 17 18:45 Calm 10 Clear CLR 51 42     71%     30.3        
Oct 17 18:25 Calm 10 Clear CLR 53 40     60%     30.3        
Oct 17 18:05 Calm 10 Clear CLR 57 39     52%     30.29        
Oct 17 17:45 Calm 10 Clear CLR 60 30     32%     30.29        
Oct 17 17:25 Calm 10 Clear CLR 61 29     29%     30.29        
Oct 17 17:05 Calm 10 Clear CLR 61 29     30%     30.29        
Oct 17 16:45 Calm 10 Clear CLR 61 29     30%     30.29        
Oct 17 16:25 Calm 10 Clear CLR 62 32     32%     30.3        
Oct 17 16:05 Calm 10 Clear CLR 61 31     33%     30.3        
Oct 17 15:45 Calm 10 Clear CLR 61 31     33%     30.3        
Oct 17 15:25 NNW 5 10 Clear CLR 61 32     34%     30.3        
Oct 17 15:05 WSW 3 10 Clear CLR 60 32     34%     30.3        
Oct 17 14:45 N 3 10 Clear CLR 60 32     35%     30.31        
Oct 17 14:25 N 5 10 Clear CLR 59 33     37%     30.32        
Oct 17 14:05 Calm 10 Clear CLR 58 33     38%     30.32        
Oct 17 13:45 W 3 10 Clear CLR 59 33     37%     30.33        
Oct 17 13:25 Calm 10 Clear CLR 57 33     39%     30.33        
Oct 17 13:05 Calm 10 Clear CLR 57 32     39%     30.35        
Oct 17 12:45 WNW 5 10 Clear CLR 56 32     40%     30.36        
Oct 17 12:25 NNE 5 10 Clear CLR 56 31     39%     30.37        
Oct 17 12:05 NE 5 10 Clear CLR 55 31     40%     30.38        
Oct 17 11:45 NNE 5 10 Clear CLR 54 32     43%     30.38        
Oct 17 11:25 NNE 6 10 Clear CLR 53 31     43%     30.38        
Oct 17 11:05 N 7 10 Clear CLR 53 31     44%     30.38        
Oct 17 10:45 N 7 10 Clear CLR 52 32     46%     30.39        
Oct 17 10:25 N 10 10 Clear CLR 51 32     48%     30.39        
Oct 17 10:05 N 5 10 Clear CLR 51 34     52%     30.39        
Oct 17 09:45 NNW 5 10 Clear CLR 49 36     60% 48   30.39        
Notice The following observation data may not be complete
Jun 12 06:33   10 Mostly Cloudy BKN080          %              
Jun 12 03:33 Calm 10 Clear CLR 68 65     91%     30.05        
Notice The following observation data may not be complete
Jun 12 02:33 Calm 10 Clear CLR   67      %     30.05        
Jun 11 22:53 Calm 10 Clear CLR 75 65     72%   76 30.07        
Notice The following observation data may not be complete
Jun 11 21:13   10 Clear CLR          %              
Jun 11 06:13 Calm 10 Clear CLR 64 62     91%     30.1        
Notice The following observation data may not be complete
Jun 11 02:13   10 Clear CLR          %              
Notice The following observation data may not be complete
Jun 11 01:33 Calm 10 Clear CLR   61      %     30.07        
Jun 11 01:13 Calm 10 Clear CLR 69 61     77%     30.07        
Notice The following observation data may not be complete
Jun 11 00:13 Calm 10 Clear CLR   61      %     30.07        
Jun 10 22:33 Calm 10 Clear CLR 71 62     71%   72 30.07        
Notice The following observation data may not be complete
Jun 10 12:33   10 Clear CLR          %              
Jun 10 11:33 S 3 10 Clear CLR 82 53     36%   81 30.05        
Jun 10 09:33 Calm 10 Clear CLR 74 59     59%   74 30.04        
Notice The following observation data may not be complete
Jun 10 04:33 Calm 10 Clear CLR   56      %     29.98        
Jun 09 21:33 Calm 10 Clear CLR 67 54     62%     29.92        
Jun 09 17:33 WSW 5 10 Partly Cloudy SCT075 80 51     35%   80 29.84        
Jun 09 13:53 WNW 9 10 Partly Cloudy SCT065 SCT080 79 52     39%   78 29.85        
Notice The following observation data may not be complete
Jun 09 13:33   10 Mostly Cloudy BKN065          %              
Jun 09 12:53 WNW 9 10 Partly Cloudy SCT060 SCT070 77 52     41%   77 29.86        
Jun 09 09:53 WNW 9 10 Clear CLR 71 54     55%   70 29.85        
Notice The following observation data may not be complete
Jun 09 07:33   10 Clear CLR          %              
Jun 09 00:53 Calm 10 Clear CLR 54 51     90%     29.83        
Jun 08 15:53 N 5 10 Mostly Cloudy BKN075 72 47     42%   71 29.9        
Jun 08 14:53 NNE 7 10 Clear CLR 71 44     38%   70 29.92        
Jun 08 12:53 NE 8 10 Clear CLR 68 49     50%     29.96        
Jun 08 01:53 Calm 10 Clear CLR 51 50     97%     30.04        
Jun 07 22:53 Calm 10 Clear CLR 54 52     93%     30.05        
Jun 07 22:13 Calm 10 Clear CLR 54 52     92%     30.04        
Jun 07 11:53 NE 3 10 Cloudy SCT016 BKN023 OVC070 62 54     76%     29.99        
Jun 07 11:33 E 8 10 Cloudy BKN018 BKN023 OVC060 62 54     75%     29.98        
Jun 06 11:13 NW 9 10 Partly Cloudy SCT047 72 53     51%   71 29.76        
Notice The following observation data may not be complete
Jun 06 10:33   10 Clear CLR          %              
Jun 06 08:13 NNW 11 10 Partly Cloudy SCT025 69 59     71%     29.74        
Jun 06 07:13 NNW 6 10 Clear CLR 66 59     78%     29.72        
Notice The following observation data may not be complete
Jun 06 03:33   2.5 Mostly Cloudy BKN048          %              
Jun 06 00:13 Calm 3 Partly Cloudy SCT065 64 64     98%     29.68        
Notice The following observation data may not be complete
Jun 05 23:33   7 Clear CLR          %